VE2DEW-13 Weather Reports


time (UTC)temp
C
wind
direction
speed
KPH
gust
KPH
rain 1hr
cm
rain 24hr
cm
rain mn
cm
humidity
%
barometer
mb
20260507020014 6 210 0.0 1.6 0.00 1.32 1.22 91 1009.4
20260507014525 6 210 0.0 1.6 0.00 1.32 1.22 91 1009.6
20260507013037 6 240 0.0 1.6 0.00 1.32 1.22 92 1009.6
20260507011536 6 237 1.6 4.8 0.00 1.32 1.22 91 1009.7
20260507010010 6 210 0.0 3.2 0.00 1.32 1.22 90 1009.5
20260507004517 6 232 1.6 1.6 0.00 1.32 1.22 90 1009.2
20260507003019 6 232 0.0 1.6 0.00 1.32 1.22 89 1009.1
20260507001525 7 227 0.0 1.6 0.00 1.32 1.22 89 1009.0
20260507000030 7 257 0.0 1.6 0.00 1.32 1.22 88 1008.8
20260506234512 7 257 0.0 1.6 0.00 1.32 1.22 87 1008.8
20260506233022 7 243 0.0 1.6 0.00 1.32 1.22 86 1008.7
20260506231521 7 269 0.0 3.2 0.00 1.32 1.22 85 1008.5
20260506230024 7 297 1.6 4.8 0.00 1.32 1.22 82 1008.3
20260506224525 8 311 0.0 3.2 0.00 1.32 1.22 81 1008.6
20260506223012 7 271 0.0 3.2 0.00 1.32 1.22 82 1008.5
20260506221518 7 293 1.6 6.4 0.00 1.32 1.22 82 1008.8
20260506220005 7 300 1.6 6.4 0.00 1.32 1.22 82 1008.8
20260506214504 7 310 1.6 4.8 0.00 1.32 1.22 82 1008.8
20260506213011 7 14 0.0 6.4 0.00 1.32 1.22 84 1008.7
20260506211516 7 39 1.6 4.8 0.00 1.32 1.22 85 1008.6
20260506210016 7 25 1.6 8.0 0.00 1.32 1.22 85 1008.7
20260506204506 7 337 3.2 6.4 0.00 1.32 1.22 85 1008.8
20260506203004 7 290 1.6 8.0 0.00 1.32 1.22 88 1008.8
20260506201514 7 308 3.2 6.4 0.03 1.32 1.22 87 1008.8
20260506200014 7 290 1.6 4.8 0.03 1.32 1.22 88 1008.6
20260506194519 7 355 0.0 6.4 0.03 1.32 1.22 88 1008.8
20260506193004 7 318 1.6 4.8 0.03 1.32 1.22 86 1008.8
20260506191508 7 325 0.0 4.8 0.00 1.32 1.19 88 1008.6
20260506190013 7 281 1.6 6.4 0.03 1.32 1.19 86 1008.6
20260506184519 7 25 3.2 6.4 0.05 1.47 1.19 86 1008.7
20260506183023 7 316 3.2 8.0 0.05 1.47 1.19 87 1008.8
20260506181506 7 331 3.2 9.7 0.08 1.47 1.19 87 1009.0
20260506180010 7 308 3.2 9.7 0.05 1.45 1.17 89 1009.3
20260506174514 7 52 3.2 9.7 0.05 1.42 1.14 90 1009.4
20260506173019 6 285 3.2 9.7 0.10 1.45 1.14 90 1009.6
20260506171536 6 4 3.2 8.0 0.10 1.42 1.12 90 1009.7
20260506170007 6 318 3.2 8.0 0.15 1.52 1.12 90 1009.6
20260506164508 6 19 3.2 8.0 0.18 1.68 1.09 90 1009.8
20260506163020 6 311 3.2 8.0 0.18 1.63 1.04 90 1010.1
20260506161529 6 300 1.6 4.8 0.20 1.60 1.02 92 1010.1
20260506160020 6 324 3.2 6.4 0.20 1.55 0.97 91 1010.1
20260506154529 6 297 1.6 3.2 0.20 1.47 0.91 92 1010.4
20260506153013 6 271 1.6 8.0 0.18 1.45 0.86 93 1010.3
20260506151515 6 292 1.6 4.8 0.15 1.40 0.81 91 1010.4
20260506150025 6 279 3.2 8.0 0.13 1.32 0.76 90 1010.2
20260506144526 6 330 1.6 6.4 0.10 1.30 0.71 92 1010.3
20260506143026 6 359 0.0 6.4 0.10 1.27 0.69 92 1010.4
20260506141510 6 316 1.6 6.4 0.10 1.24 0.66 92 1010.6
20260506140013 6 309 3.2 6.4 0.08 1.22 0.64 90 1010.5
20260506134546 6 360 1.6 8.0 0.08 1.19 0.61 91 1010.2
20260506133022 6 296 1.6 8.0 0.08 1.17 0.58 91 1010.2
20260506131529 6 307 3.2 6.4 0.08 1.14 0.56 91 1010.4
20260506130012 6 287 1.6 6.4 0.10 1.14 0.56 91 1010.4
20260506124517 6 295 3.2 9.7 0.13 1.12 0.53 90 1010.6
20260506123021 6 318 3.2 12.9 0.18 1.09 0.51 90 1010.8
20260506121523 6 301 3.2 9.7 0.20 1.12 0.48 90 1010.8
20260506120026 6 297 6.4 11.3 0.25 1.12 0.46 89 1010.8
20260506114533 6 298 4.8 11.3 0.23 1.07 0.41 89 1010.7
20260506113018 6 266 3.2 9.7 0.18 0.99 0.33 89 1010.7
20260506111523 6 286 0.0 4.8 0.15 0.94 0.28 89 1010.9
20260506110023 7 261 0.0 1.6 0.08 0.86 0.20 88 1010.7
20260506104527 7 234 0.0 1.6 0.05 0.84 0.18 87 1010.2
20260506103029 7 289 0.0 1.6 0.03 0.81 0.15 86 1009.7
20260506101518 7 256 0.0 1.6 0.00 0.79 0.13 84 1009.9
20260506100031 7 238 1.6 3.2 0.00 0.79 0.13 84 1010.3
20260506094524 7 208 1.6 4.8 0.00 0.79 0.13 84 1010.1
20260506093028 7 220 3.2 3.2 0.00 0.79 0.13 85 1009.9
20260506091528 7 206 1.6 4.8 0.00 0.79 0.13 85 1010.1
20260506090020 7 237 0.0 1.6 0.00 0.79 0.13 85 1010.0
20260506084525 7 225 1.6 3.2 0.00 0.79 0.13 85 1010.1
20260506083026 7 240 0.0 3.2 0.00 0.79 0.13 85 1010.1
20260506081531 8 228 1.6 6.4 0.03 0.79 0.13 83 1010.0
20260506073024 8 230 4.8 11.3 0.05 0.79 0.13 82 1009.9
20260506071527 8 194 4.8 8.0 0.03 0.76 0.10 85 1009.9
20260506061523 8 192 1.6 3.2 0.08 0.74 0.08 87 1009.7
20260506044512 9 207 3.2 8.0 0.03 0.66 0.00 82 1009.6
20260506043015 9 212 4.8 14.5 0.05 0.66 0.00 81 1009.2
20260506041518 9 184 4.8 9.7 0.08 0.66 0.00 82 1009.1
20260506040025 9 200 4.8 16.1 0.08 0.66 0.00 80 1009.0
20260506034520 10 217 9.7 17.7 0.05 0.64 0.64 78 1008.4
20260506033015 10 254 6.4 14.5 0.03 0.61 0.61 77 1008.1
20260506031519 11 212 6.4 19.3 0.03 0.58 0.58 74 1008.5
20260506030021 11 228 6.4 17.7 0.05 0.58 0.58 74 1008.1
20260506024534 11 232 9.7 19.3 0.05 0.58 0.58 79 1007.9
20260506023020 12 242 8.0 19.3 0.05 0.58 0.58 78 1007.9
20260506021513 12 265 9.7 20.9 0.03 0.56 0.56 75 1008.0